Stations météo

réclame
Mon MeteoGroup
Kirkwall, Grande-Bretagne (3017): Température de l'air & dewpoint: 15.01.2018 13:00:00 - 21.01.2018 13:00:00 (GMT)Kirkwall, Grande-Bretagne (3017): Température de l'air -20cm & Température de l'air -100cm: 15.01.2018 13:00:00 - 21.01.2018 13:00:00 (GMT)Kirkwall, Grande-Bretagne (3017): Vitesse du vent & gusts: 15.01.2018 13:00:00 - 21.01.2018 13:00:00 (GMT)Kirkwall, Grande-Bretagne (3017): Direction du vent: 15.01.2018 13:00:00 - 21.01.2018 13:00:00 (GMT)Kirkwall, Grande-Bretagne (3017): reduced air pressure: 15.01.2018 13:00:00 - 21.01.2018 13:00:00 (GMT)Kirkwall, Grande-Bretagne (3017): visibility: 15.01.2018 13:00:00 - 21.01.2018 13:00:00 (GMT)Kirkwall, Grande-Bretagne (3017): Ensoleillement: 15.01.2018 13:00:00 - 21.01.2018 13:00:00 (GMT)Kirkwall, Grande-Bretagne (3017): Quantités de précipitations: 15.01.2018 13:00:00 - 21.01.2018 13:00:00 (GMT)
Date & Time tt [°C] td [°C] tt -20cm [°C] tt -100cm [°C] ff [km/h] ff [knt] fx [km/h] fx [knt] dd ppp [hPa] vv [km] sd [min] rr [mm]
21.01.2018 13:00:00 - - - - - - - - - - - - -
21.01.2018 12:00:00 2,8 0,3 - - 26 14 - - SSE 1006,2 35 6 0,0
21.01.2018 11:00:00 2,0 0,1 - - 18 10 - - SSE 1007,6 45 12 0,0
21.01.2018 10:00:00 0,5 -1,2 - - 21 11 - - SSE 1008,5 50 0 0,0
21.01.2018 09:00:00 -0,4 -0,8 - - 11 6 - - SSE 1009,0 50 0 0,0
21.01.2018 08:00:00 -0,7 -1,0 - - 9 5 - - S 1009,2 50 0 0,0
21.01.2018 07:00:00 -1,2 -1,7 - - 8 4 - - SSW 1009,1 50 0 0,0
21.01.2018 06:00:00 -1,3 -2,0 - - 11 6 - - S 1009,5 50 0 0,0
21.01.2018 05:00:00 -0,3 -1,2 - - 4 2 - - SW 1009,7 50 0 0,0
21.01.2018 04:00:00 -1,0 -3,1 - - 5 3 - - SSW 1009,8 50 0 0,0
21.01.2018 03:00:00 -0,7 -2,0 - - 9 5 - - WSW 1009,6 45 0 0,0
21.01.2018 02:00:00 -0,7 -1,6 - - 8 4 - - SW 1009,3 50 0 0,0
21.01.2018 01:00:00 -1,3 -2,1 - - 5 3 - - SW 1009,0 50 0 0,0
21.01.2018 00:00:00 -1,5 -2,6 - - 11 6 - - WSW 1008,3 50 - 0,0
20.01.2018 23:00:00 -1,7 -2,9 - - 13 7 - - WSW 1007,9 50 0 0,0
20.01.2018 22:00:00 -1,5 -2,6 - - 9 5 - - WSW 1007,0 50 0 0,0
20.01.2018 21:00:00 -1,2 -2,2 - - 8 4 - - W 1006,0 45 0 0,0
20.01.2018 20:00:00 1,6 -1,0 - - 13 7 - - NW 1005,1 50 0 0,0
20.01.2018 19:00:00 0,6 0,0 - - 16 9 - - WNW 1004,5 45 0 0,0
20.01.2018 18:00:00 -0,3 -0,8 - - 13 7 - - W 1003,3 50 0 0,0
20.01.2018 17:00:00 -0,7 -1,7 - - 8 4 - - W 1002,4 45 0 0,0
20.01.2018 16:00:00 -0,1 -1,2 - - 8 4 - - W 1001,3 50 0 0,0
20.01.2018 15:00:00 1,6 0,6 - - 18 10 - - NNE 1000,1 50 42 0,0
20.01.2018 14:00:00 0,4 -0,7 - - 8 4 - - W 999,2 35 12 0,4
20.01.2018 13:00:00 1,6 -0,4 - - 9 5 - - WNW 998,4 40 54 0,2
20.01.2018 12:00:00 1,1 -0,4 - - 11 6 - - W 997,6 50 48 0,0
20.01.2018 11:00:00 -0,2 -1,2 - - 11 6 - - W 997,5 50 60 0,0
20.01.2018 10:00:00 -1,6 -2,1 - - 11 6 - - WSW 997,0 50 6 0,0
20.01.2018 09:00:00 -1,1 -1,5 - - 11 6 - - W 996,4 50 0 0,0
20.01.2018 08:00:00 -0,6 -1,0 - - 16 9 - - W 995,6 50 0 0,0
20.01.2018 07:00:00 -0,9 -1,3 - - 18 10 - - SW 994,9 50 0 0,0
20.01.2018 06:00:00 0,0 -0,5 - - 15 8 - - SSW 994,7 50 0 0,0
20.01.2018 05:00:00 -1,0 -2,1 - - 8 4 - - WSW 994,4 50 0 0,0
20.01.2018 04:00:00 0,8 -0,4 - - 13 7 - - WNW 994,5 50 0 0,0
20.01.2018 03:00:00 0,3 -0,3 - - 16 9 - - SW 994,5 50 0 0,0
20.01.2018 02:00:00 -0,8 -1,7 - - 9 5 - - WSW 994,6 45 0 0,0
20.01.2018 01:00:00 0,7 0,1 - - 18 10 - - WSW 994,4 45 0 0,0
20.01.2018 00:00:00 0,8 0,5 - - 13 7 - - SW 994,3 50 - 0,0
19.01.2018 23:00:00 -0,6 -0,7 - - 5 3 - - WSW 994,4 50 0 0,0
19.01.2018 22:00:00 0,5 0,4 - - 9 5 - - W 994,4 4,9 0 0,0
19.01.2018 21:00:00 0,2 0,2 - - 16 9 - - SW 994,2 50 0 0,0
19.01.2018 20:00:00 0,5 0,4 - - 15 8 - - SSW 994,2 14 0 0,0
19.01.2018 19:00:00 0,4 0,1 - - 8 4 - - WSW 994,2 1,8 0 0,0
19.01.2018 18:00:00 0,7 0,1 - - 9 5 - - WNW 993,9 50 0 0,0
19.01.2018 17:00:00 1,4 0,9 - - 9 5 - - WSW 993,7 50 0 0,0
19.01.2018 16:00:00 1,7 1,1 - - 18 10 - - SSW 993,5 5 0 0,4
19.01.2018 15:00:00 1,6 0,9 - - 22 12 - - SW 993,5 40 6 0,0
19.01.2018 14:00:00 1,6 1,2 - - 16 9 - - SSW 993,5 45 6 0,4
19.01.2018 13:00:00 0,7 0,7 - - 15 8 - - SSW 993,6 15 0 0,6
19.01.2018 12:00:00 0,6 0,4 - - 15 8 - - S 993,8 40 0 0,8
19.01.2018 11:00:00 1,2 0,9 - - 22 12 - - WSW 994,1 10 0 0,4
19.01.2018 10:00:00 0,8 0,3 - - 21 11 - - W 993,8 11 0 0,8
19.01.2018 09:00:00 1,0 0,6 - - 18 10 - - SW 993,5 50 0 0,6
19.01.2018 08:00:00 1,3 0,5 - - 21 11 - - SSW 993,4 50 0 0,0
19.01.2018 07:00:00 1,0 0,4 - - 24 13 - - SW 993,1 45 0 0,4
19.01.2018 06:00:00 0,6 0,2 - - 26 14 - - WSW 993,5 1,1 0 0,2
19.01.2018 05:00:00 1,1 0,6 - - 26 14 - - W 993,4 21 0 0,6
19.01.2018 04:00:00 1,1 0,6 - - 22 12 - - SW 993,3 13 0 0,6
19.01.2018 03:00:00 0,7 0,3 - - 15 8 - - WSW 993,8 11 0 0,2
19.01.2018 02:00:00 0,9 0,6 - - 13 7 - - W 993,7 50 0 0,0
19.01.2018 01:00:00 0,7 0,2 - - 28 15 46 25 W 993,8 2,9 0 1,2
19.01.2018 00:00:00 1,4 0,6 - - 37 20 46 25 SW 993,2 40 - 0,4
18.01.2018 23:00:00 1,7 1,0 - - 24 13 - - SW 993,3 50 0 0,4
18.01.2018 22:00:00 1,5 0,4 - - 21 11 - - SW 993,1 50 0 0,4
18.01.2018 21:00:00 1,0 0,5 - - 22 12 - - WSW 993,5 45 0 0,8
18.01.2018 20:00:00 1,1 0,8 - - 16 9 - - SSW 992,9 45 0 0,0
18.01.2018 19:00:00 0,6 0,3 - - 8 4 - - SW 992,7 45 0 0,0
18.01.2018 18:00:00 0,6 0,0 - - 13 7 - - W 992,7 2,1 0 0,4
18.01.2018 17:00:00 1,4 0,6 - - 9 5 - - W 992,1 16 0 0,6
18.01.2018 16:00:00 1,6 0,3 - - 13 7 - - NW 991,6 2,8 0 1,8
18.01.2018 15:00:00 2,2 0,5 - - 11 6 - - W 991,1 12 6 0,0
18.01.2018 14:00:00 1,9 -0,3 - - 8 4 - - W 990,7 40 0 0,0
18.01.2018 13:00:00 2,1 -0,2 - - 13 7 - - W 990,4 35 0 0,0
18.01.2018 12:00:00 1,5 -0,4 - - 11 6 - - WSW 990,2 40 0 0,0
18.01.2018 11:00:00 1,7 0,3 - - 8 4 - - WNW 989,8 50 0 0,0
18.01.2018 10:00:00 1,7 0,7 - - 13 7 - - W 989,2 50 0 0,0
18.01.2018 09:00:00 1,3 0,2 - - 24 13 - - WSW 988,7 5 0 0,0
18.01.2018 08:00:00 1,0 0,6 - - 16 9 - - WSW 988,2 40 0 0,0
18.01.2018 07:00:00 0,4 0,1 - - 21 11 - - WSW 987,7 40 0 0,0
18.01.2018 06:00:00 0,9 0,3 - - 22 12 - - W 987,4 3,2 0 0,0
18.01.2018 05:00:00 -0,2 -0,9 - - 18 10 - - WSW 987,0 50 0 0,0
18.01.2018 04:00:00 0,7 0,3 - - 9 5 - - W 987,0 50 0 0,0
18.01.2018 03:00:00 0,5 0,0 - - 13 7 - - WSW 986,8 50 0 0,0
18.01.2018 02:00:00 0,5 0,1 - - 18 10 - - WSW 986,9 50 0 0,0
18.01.2018 01:00:00 0,9 0,4 - - 9 5 - - WSW 987,1 29 0 0,0
18.01.2018 00:00:00 0,9 0,1 - - 15 8 - - WSW 987,1 35 - 0,0
17.01.2018 23:00:00 1,9 1,0 - - 24 13 - - WSW 987,4 45 0 0,4
17.01.2018 22:00:00 2,2 1,1 - - 24 13 - - WSW 987,6 25 0 0,2
17.01.2018 21:00:00 2,0 0,9 - - 9 5 - - WNW 988,1 28 0 0,4
17.01.2018 20:00:00 0,5 -1,4 - - 13 7 - - WSW 988,0 30 0 0,0
17.01.2018 19:00:00 0,8 -0,7 - - 4 2 - - NW 988,5 30 0 0,4
17.01.2018 18:00:00 2,2 1,0 - - 24 13 - - WSW 988,3 24 0 0,0
17.01.2018 17:00:00 1,5 -0,5 - - 18 10 - - W 988,1 35 0 0,0
17.01.2018 16:00:00 1,6 -0,4 - - 16 9 - - W 987,8 30 6 0,0
17.01.2018 15:00:00 1,8 -0,3 - - 18 10 - - W 987,4 30 12 0,4
17.01.2018 14:00:00 1,9 0,6 - - 16 9 46 25 W 986,6 29 36 1,2
17.01.2018 13:00:00 1,5 0,3 - - 26 14 48 26 W 986,0 35 6 0,8
17.01.2018 12:00:00 1,8 -0,4 - - 29 16 57 31 WNW 985,4 45 6 1,8
17.01.2018 11:00:00 2,8 -0,1 - - 22 12 46 25 W 984,7 8 6 1,2
17.01.2018 10:00:00 2,6 -0,2 - - 22 12 50 27 W 983,8 24 0 1,6
17.01.2018 09:00:00 2,2 -0,8 - - 26 14 48 26 W 983,4 23 0 0,6
17.01.2018 08:00:00 1,3 1,0 - - 15 8 - - W 982,5 26 0 0,4
17.01.2018 07:00:00 0,6 0,0 - - 18 10 - - W 982,0 6 0 0,2
17.01.2018 06:00:00 1,1 0,0 - - 31 17 46 25 W 980,8 10 0 1,0
17.01.2018 05:00:00 1,9 0,7 - - 31 17 - - WSW 979,2 50 0 0,6
17.01.2018 04:00:00 1,5 1,1 - - 34 18 48 26 SW 978,8 7 0 0,0
17.01.2018 03:00:00 1,0 0,3 - - 31 17 59 32 WSW 978,0 50 0 0,0
17.01.2018 02:00:00 0,9 -0,6 - - 41 22 54 29 WSW 977,2 35 0 0,0
17.01.2018 01:00:00 1,0 -0,4 - - 35 19 52 28 SW 976,7 40 0 0,0
17.01.2018 00:00:00 0,6 -0,9 - - 39 21 59 32 SW 976,5 35 - 0,0
16.01.2018 23:00:00 0,2 -1,4 - - 41 22 55 30 SW 975,4 35 0 0,0
16.01.2018 22:00:00 0,3 -0,9 - - 31 17 52 28 SW 974,7 28 0 0,0
16.01.2018 21:00:00 0,3 -1,0 - - 35 19 46 25 SW 974,2 30 0 0,0
16.01.2018 20:00:00 0,6 -0,5 - - 34 18 - - SW 974,1 35 0 0,0
16.01.2018 19:00:00 0,1 -0,4 - - 21 11 54 29 SW 973,9 35 0 0,0
16.01.2018 18:00:00 0,3 -0,2 - - 44 24 57 31 SW 973,2 8 0 0,0
16.01.2018 17:00:00 0,5 0,1 - - 41 22 61 33 WSW 972,9 4,7 0 0,0
16.01.2018 16:00:00 0,7 -0,4 - - 34 18 46 25 SW 972,5 45 12 0,2
16.01.2018 15:00:00 0,0 -0,1 - - 42 23 63 34 W 972,7 1,2 0 0,4
16.01.2018 14:00:00 0,6 0,4 - - 21 11 46 25 SSW 972,3 2,0 0 0,2
16.01.2018 13:00:00 0,5 0,0 - - 35 19 61 33 WSW 972,7 9 0 1,0
16.01.2018 12:00:00 1,5 -0,4 - - 48 26 67 36 WSW 972,6 30 18 2,4
16.01.2018 11:00:00 1,4 1,1 - - 16 9 - - WSW 972,7 27 6 0,0
16.01.2018 10:00:00 0,1 -0,3 - - 22 12 57 31 W 973,4 8 0 0,2
16.01.2018 09:00:00 1,3 0,5 4,2 5,2 39 21 57 31 SW 972,8 29 0 0,6
16.01.2018 08:00:00 0,6 0,1 - - 18 10 54 29 SW 973,1 30 0 0,4
16.01.2018 07:00:00 1,3 0,2 - - 39 21 59 32 SW 972,8 40 0 1,0
16.01.2018 06:00:00 2,4 -0,5 - - 37 20 57 31 WSW 972,7 35 0 1,2
16.01.2018 05:00:00 1,8 0,1 - - 29 16 78 42 WSW 972,9 40 0 0,2
16.01.2018 04:00:00 1,8 0,4 - - 29 16 - - SW 973,3 23 0 0,0
16.01.2018 03:00:00 0,3 0,1 - - 15 8 46 25 WSW 973,9 50 0 0,0
16.01.2018 02:00:00 0,7 -0,2 - - 22 12 59 32 W 974,1 1,6 0 0,6
16.01.2018 01:00:00 1,0 0,5 - - 50 27 70 38 WSW 974,2 8 0 0,4
16.01.2018 00:00:00 0,4 0,1 - - 31 17 50 27 W 974,8 1,4 - 0,4
15.01.2018 23:00:00 1,4 0,9 - - 34 18 46 25 SW 974,4 6 0 0,8
15.01.2018 22:00:00 1,1 0,7 - - 34 18 55 30 WSW 975,0 10 0 1,2
15.01.2018 21:00:00 1,6 1,3 - - 34 18 46 25 SW 974,7 19 0 0,6
15.01.2018 20:00:00 0,6 0,3 - - 22 12 54 29 SW 975,3 30 0 0,6
15.01.2018 19:00:00 2,1 1,5 - - 28 15 - - SW 975,7 24 0 0,6
15.01.2018 18:00:00 2,0 0,9 - - 29 16 52 28 WSW 976,0 35 0 1,0
15.01.2018 17:00:00 1,1 0,8 - - 13 7 52 28 WSW 976,6 29 0 1,8
15.01.2018 16:00:00 1,8 0,4 - - 31 17 50 27 WSW 977,6 7 0 0,6
15.01.2018 15:00:00 3,8 2,5 - - 24 13 - - SW 977,7 30 6 0,0
15.01.2018 14:00:00 4,1 2,7 - - 31 17 52 28 SW 978,6 25 0 0,0
15.01.2018 13:00:00 4,3 2,7 - - 22 12 - - SW 979,1 25 0 0,0

tt = Température de l'air
td = dewpoint
tt -20cm = Température de l'air -20cm
tt -100cm = Température de l'air -100cm
ff = Vitesse du vent
fx = gusts
dd = Direction du vent
ppp = reduced air pressure
vv = visibility
sd = Ensoleillement
rr = Quantités de précipitations

stations d'obs. à proximité